When you browse on this site, cookies collect data to enhance your experience and personalize the content and advertising you see.
Visit our Privacy Policy to learn more. By continuing to use the site, you agree to this use of cookies and data.
  • In Hungary
  • List of Countries
  • For 7 days
  • Water Temperature
  • Satellite Maps
  • Weather Map
  • News
  • Weather Widgets
  • user-avatar
    Login

    Hourly Weather Bojary

    Today, 22 May, Wednesday

    Time Temperature Precipitation Wind Pressure Humidity
    00:00 +12°C° 0 mm 5 mps 739 mmHg 87%
    01:00 +12°C° 0 mm 5 mps 739 mmHg 88%
    02:00 +12°C° 0 mm 5 mps 739 mmHg 89%
    03:00 +12°C° 0.1 mm 5 mps 739 mmHg 90%
    04:00 +12°C° 0.1 mm 5 mps 739 mmHg 91%
    05:00 +13°C° 0.1 mm 5 mps 738 mmHg 92%
    06:00 +13°C° 0.3 mm 5 mps 739 mmHg 92%
    07:00 +13°C° 0.3 mm 4 mps 739 mmHg 92%
    08:00 +13°C° 0.3 mm 4 mps 739 mmHg 92%
    09:00 +15°C° 0.2 mm 5 mps 739 mmHg 87%
    10:00 +16°C° 0.2 mm 5 mps 739 mmHg 82%
    11:00 +17°C° 0.2 mm 5 mps 739 mmHg 76%
    12:00 +19°C° 0.3 mm 5 mps 739 mmHg 74%
    13:00 +19°C° 0.3 mm 5 mps 739 mmHg 72%
    14:00 +20°C° 0.3 mm 5 mps 739 mmHg 70%
    15:00 +20°C° 0.3 mm 4 mps 739 mmHg 71%
    16:00 +19°C° 0.3 mm 4 mps 739 mmHg 72%
    17:00 +19°C° 0.3 mm 3 mps 739 mmHg 73%
    18:00 +18°C° 0.1 mm 3 mps 739 mmHg 78%
    19:00 +17°C° 0.1 mm 2 mps 739 mmHg 83%
    20:00 +16°C° 0.1 mm 2 mps 739 mmHg 88%
    21:00 +15°C° 0 mm 2 mps 740 mmHg 91%
    22:00 +14°C° 0 mm 2 mps 740 mmHg 93%
    23:00 +13°C° 0 mm 2 mps 740 mmHg 95%

    Tomorrow, 23 May, Thursday

    Time Temperature Precipitation Wind Pressure Humidity
    00:00 +13°C° 0 mm 2 mps 740 mmHg 95%
    01:00 +13°C° 0 mm 2 mps 741 mmHg 95%
    02:00 +12°C° 0 mm 1 mps 741 mmHg 96%
    03:00 +12°C° 0 mm 1 mps 741 mmHg 96%
    04:00 +12°C° 0 mm 1 mps 741 mmHg 96%
    05:00 +12°C° 0 mm 1 mps 741 mmHg 96%
    06:00 +13°C° 0 mm 2 mps 742 mmHg 92%
    07:00 +15°C° 0 mm 2 mps 742 mmHg 87%
    08:00 +17°C° 0 mm 2 mps 742 mmHg 83%
    09:00 +18°C° 0.1 mm 2 mps 742 mmHg 78%
    10:00 +19°C° 0.1 mm 2 mps 742 mmHg 72%
    11:00 +20°C° 0.1 mm 2 mps 743 mmHg 67%
    12:00 +21°C° 0.3 mm 2 mps 743 mmHg 68%
    13:00 +21°C° 0.3 mm 2 mps 743 mmHg 68%
    14:00 +21°C° 0.3 mm 3 mps 742 mmHg 68%
    15:00 +21°C° 0.9 mm 3 mps 742 mmHg 71%
    16:00 +21°C° 0.9 mm 3 mps 742 mmHg 74%
    17:00 +21°C° 0.9 mm 4 mps 742 mmHg 77%
    18:00 +19°C° 1.1 mm 4 mps 743 mmHg 82%
    19:00 +17°C° 1.1 mm 5 mps 743 mmHg 86%
    20:00 +16°C° 1.1 mm 5 mps 743 mmHg 91%
    21:00 +15°C° 0.3 mm 5 mps 743 mmHg 92%
    22:00 +15°C° 0.3 mm 5 mps 744 mmHg 93%
    23:00 +14°C° 0.3 mm 5 mps 744 mmHg 94%

    Day after tomorrow, 24 May, Friday

    Time Temperature Precipitation Wind Pressure Humidity
    00:00 +13°C° 0.7 mm 5 mps 744 mmHg 94%
    01:00 +12°C° 0.7 mm 5 mps 744 mmHg 94%
    02:00 +12°C° 0.7 mm 5 mps 744 mmHg 94%
    03:00 +11°C° 0.1 mm 4 mps 744 mmHg 94%
    04:00 +11°C° 0.1 mm 4 mps 744 mmHg 94%
    05:00 +10°C° 0.1 mm 4 mps 744 mmHg 93%
    06:00 +11°C° 0 mm 4 mps 744 mmHg 90%
    07:00 +12°C° 0 mm 4 mps 744 mmHg 87%
    08:00 +12°C° 0 mm 4 mps 745 mmHg 84%
    09:00 +13°C° 0 mm 4 mps 745 mmHg 80%
    10:00 +15°C° 0 mm 4 mps 745 mmHg 77%
    11:00 +17°C° 0 mm 4 mps 745 mmHg 74%
    12:00 +16°C° 0 mm 5 mps 745 mmHg 74%
    13:00 +16°C° 0 mm 5 mps 745 mmHg 73%
    14:00 +17°C° 0 mm 5 mps 745 mmHg 73%
    15:00 +17°C° 0 mm 5 mps 744 mmHg 73%
    16:00 +17°C° 0 mm 5 mps 744 mmHg 72%
    17:00 +18°C° 0 mm 4 mps 744 mmHg 71%
    18:00 +17°C° 0 mm 4 mps 744 mmHg 75%
    19:00 +16°C° 0 mm 3 mps 744 mmHg 79%
    20:00 +16°C° 0 mm 2 mps 743 mmHg 83%
    21:00 +15°C° 0 mm 2 mps 743 mmHg 84%
    22:00 +14°C° 0 mm 2 mps 744 mmHg 86%
    23:00 +13°C° 0 mm 2 mps 744 mmHg 87%

    25 May, Saturday

    Time Temperature Precipitation Wind Pressure Humidity
    00:00 +13°C° 0 mm 2 mps 744 mmHg 88%
    01:00 +12°C° 0 mm 2 mps 744 mmHg 90%
    02:00 +12°C° 0 mm 2 mps 744 mmHg 91%
    03:00 +10°C° 0 mm 2 mps 743 mmHg 91%
    04:00 +10°C° 0 mm 2 mps 743 mmHg 92%
    05:00 +10°C° 0 mm 2 mps 743 mmHg 92%
    06:00 +13°C° 0 mm 2 mps 743 mmHg 88%
    07:00 +13°C° 0 mm 3 mps 743 mmHg 84%
    08:00 +16°C° 0 mm 3 mps 743 mmHg 79%
    09:00 +17°C° 0.3 mm 3 mps 743 mmHg 74%
    10:00 +19°C° 0.3 mm 4 mps 743 mmHg 70%
    11:00 +20°C° 0.3 mm 4 mps 743 mmHg 65%
    12:00 +20°C° 0.4 mm 5 mps 743 mmHg 66%
    13:00 +20°C° 0.4 mm 5 mps 743 mmHg 67%
    14:00 +20°C° 0.4 mm 6 mps 742 mmHg 67%
    15:00 +20°C° 0.2 mm 6 mps 742 mmHg 66%
    16:00 +20°C° 0.2 mm 6 mps 742 mmHg 64%
    17:00 +19°C° 0.2 mm 6 mps 742 mmHg 62%
    18:00 +17°C° 0 mm 5 mps 743 mmHg 68%
    19:00 +15°C° 0 mm 5 mps 743 mmHg 73%
    20:00 +14°C° 0 mm 4 mps 743 mmHg 79%
    21:00 +12°C° 0 mm 3 mps 743 mmHg 83%
    22:00 +11°C° 0 mm 3 mps 743 mmHg 86%
    23:00 +10°C° 0 mm 3 mps 744 mmHg 89%

    26 May, Sunday

    Time Temperature Precipitation Wind Pressure Humidity
    00:00 +9°C° 0 mm 3 mps 744 mmHg 91%
    01:00 +9°C° 0 mm 3 mps 744 mmHg 92%
    02:00 +8°C° 0 mm 3 mps 744 mmHg 94%
    03:00 +8°C° 0 mm 3 mps 744 mmHg 93%
    04:00 +8°C° 0 mm 3 mps 744 mmHg 93%
    05:00 +7°C° 0 mm 4 mps 744 mmHg 92%
    06:00 +8°C° 0 mm 4 mps 743 mmHg 86%
    07:00 +10°C° 0 mm 5 mps 743 mmHg 81%
    08:00 +13°C° 0 mm 5 mps 743 mmHg 75%
    09:00 +13°C° 0.1 mm 6 mps 743 mmHg 75%
    10:00 +13°C° 0.1 mm 6 mps 743 mmHg 74%
    11:00 +14°C° 0.1 mm 7 mps 743 mmHg 74%
    12:00 +14°C° 0.2 mm 7 mps 743 mmHg 73%
    13:00 +14°C° 0.2 mm 7 mps 743 mmHg 73%
    14:00 +14°C° 0.2 mm 7 mps 742 mmHg 72%
    15:00 +14°C° 0 mm 7 mps 742 mmHg 70%
    16:00 +14°C° 0 mm 7 mps 742 mmHg 69%
    17:00 +14°C° 0 mm 7 mps 742 mmHg 67%
    18:00 +13°C° 0 mm 6 mps 742 mmHg 71%
    19:00 +12°C° 0 mm 5 mps 742 mmHg 75%
    20:00 +11°C° 0 mm 4 mps 742 mmHg 79%
    21:00 +10°C° 0 mm 4 mps 742 mmHg 83%
    22:00 +9°C° 0 mm 3 mps 742 mmHg 87%
    23:00 +8°C° 0 mm 2 mps 742 mmHg 91%

    27 May, Monday

    Time Temperature Precipitation Wind Pressure Humidity
    00:00 +8°C° 0 mm 2 mps 742 mmHg 89%
    01:00 +9°C° 0 mm 3 mps 742 mmHg 87%
    02:00 +9°C° 0 mm 3 mps 742 mmHg 86%
    03:00 +10°C° 0 mm 4 mps 742 mmHg 87%
    04:00 +10°C° 0 mm 4 mps 742 mmHg 89%
    05:00 +10°C° 0 mm 5 mps 742 mmHg 91%
    06:00 +10°C° 0 mm 5 mps 742 mmHg 87%
    07:00 +12°C° 0 mm 5 mps 743 mmHg 84%
    08:00 +13°C° 0 mm 5 mps 743 mmHg 81%
    09:00 +14°C° 0.1 mm 6 mps 743 mmHg 81%
    10:00 +15°C° 0.1 mm 6 mps 743 mmHg 80%
    11:00 +15°C° 0.1 mm 6 mps 743 mmHg 80%
    12:00 +17°C° 0.1 mm 6 mps 743 mmHg 76%
    13:00 +19°C° 0.1 mm 6 mps 743 mmHg 71%
    14:00 +20°C° 0.1 mm 6 mps 743 mmHg 67%
    15:00 +19°C° 0.6 mm 5 mps 743 mmHg 74%
    16:00 +17°C° 0.6 mm 5 mps 742 mmHg 80%
    17:00 +17°C° 0.6 mm 5 mps 742 mmHg 87%
    18:00 +17°C° 0.5 mm 4 mps 742 mmHg 88%
    19:00 +15°C° 0.5 mm 4 mps 742 mmHg 90%
    20:00 +16°C° 0.5 mm 3 mps 742 mmHg 92%
    21:00 +14°C° 0 mm 3 mps 743 mmHg 93%
    22:00 +13°C° 0 mm 3 mps 743 mmHg 94%
    23:00 +13°C° 0 mm 3 mps 743 mmHg 96%
    Show more